Simultaneous Nadir Overpasses (SNOs) Predictions

Prediction of SNOs near US between AQUA and NPP Satellite Orbit:

Table of predicted SNOs near US for the next 10.0 days since TLE Epoch: 8/1/2015
Index Date (AQUA) Time (AQUA) AQUA Lat,Lon Date (NPP) Time (NPP) NPP Lat,Lon Distance(km) Time Diff (sec)
1 08/02/2015 06:30:30 46.40, -65.04 08/02/2015 06:34:30 46.83, -67.05 160.94 240
2 08/02/2015 08:08:24 49.91, -88.36 08/02/2015 08:14:58 50.39, -90.91 188.73 394
3 08/04/2015 19:06:35 50.00, -92.54 08/04/2015 19:05:13 49.68, -94.41 138.04 82
4 08/04/2015 20:44:18 45.83,-115.62 08/04/2015 20:45:28 45.37,-118.00 192.26 70
5 08/07/2015 06:56:24 20.01, -77.18 08/07/2015 06:48:28 19.92, -76.73 48.01 476
6 08/07/2015 08:32:23 30.49, -99.33 08/07/2015 08:26:57 30.51, -99.37 4.28 326
7 08/07/2015 10:08:45 39.55,-121.46 08/07/2015 10:05:50 39.65,-121.99 46.33 175
8 08/10/2015 07:19:00 49.89, -76.03 08/10/2015 07:24:08 50.30, -78.26 165.04 308
9 08/10/2015 08:57:53 49.89,-100.75 08/10/2015 09:05:35 50.46,-103.56 209.50 462




NCC Satellite Simultaneous Nadir Overpasses (SNOs) Prediction Service
